Location: Vancouver
(49.2500°N, 123.1330°W)
Time: 01:55:39
(UTC-08:00)

S-56A Canister/Altair - Visible Passes

Search period start: 08 December 2016 00:00
Search period end: 18 December 2016 00:00
Orbit: 640 x 2495 km, 38.9° (Epoch: 07 December)

Date Brightness Start Highest point End Pass type
(mag) Time Alt. Az. Time Alt. Az. Time Alt. Az.
08 Dec 9.5 18:18:35 10° SW 18:24:55 37° SSE 18:29:52 23° ESE visible
08 Dec 9.6 20:20:55 10° WSW 20:27:19 43° SSW 20:27:19 43° SSW visible
08 Dec 11.2 22:24:30 10° W 22:24:45 11° W 22:24:45 11° W visible
09 Dec 9.5 17:46:42 10° SW 17:52:31 34° SSE 17:59:08 15° ESE visible
09 Dec 9.4 19:48:47 10° WSW 19:56:09 44° S 19:56:35 44° S visible
09 Dec 10.8 21:52:08 10° W 21:54:02 17° WSW 21:54:02 17° WSW visible
10 Dec 9.5 17:14:53 10° SW 17:20:12 30° SSE 17:27:31 10° E visible
10 Dec 9.4 19:16:43 10° WSW 19:23:34 43° S 19:25:52 37° SSE visible
10 Dec 10.4 21:19:51 10° W 21:23:19 24° WSW 21:23:19 24° WSW visible
11 Dec 9.6 16:43:07 10° SSW 16:47:55 26° SSE 16:54:19 10° E visible
11 Dec 9.4 18:44:42 10° WSW 18:51:04 41° S 18:55:12 28° SE visible
11 Dec 10.0 20:47:37 10° WSW 20:52:39 31° SW 20:52:39 31° SW visible
12 Dec 9.3 18:12:43 10° WSW 18:18:38 39° S 18:24:34 18° ESE visible
12 Dec 9.8 20:15:27 10° WSW 20:22:01 36° SSW 20:22:01 36° SSW visible
13 Dec 9.3 17:40:46 10° SW 17:46:15 36° S 17:53:59 10° ESE visible
13 Dec 9.7 19:43:19 10° WSW 19:49:54 36° S 19:51:27 34° S visible
13 Dec 10.9 21:47:26 10° WSW 21:48:54 14° WSW 21:48:54 14° WSW visible
14 Dec 9.3 17:08:51 10° SW 17:13:56 34° SSE 17:21:00 10° ESE visible
14 Dec 9.6 19:11:15 10° WSW 19:17:24 35° S 19:20:55 27° SSE visible
14 Dec 10.6 21:15:04 10° WSW 21:18:23 19° SW 21:18:23 19° SW visible
15 Dec 9.5 18:39:12 10° WSW 18:44:57 35° S 18:50:29 18° SE visible
15 Dec 10.3 20:42:47 10° WSW 20:47:57 22° SSW 20:47:57 22° SSW visible
16 Dec 9.5 18:07:11 10° WSW 18:12:33 34° S 18:20:05 10° SE visible
16 Dec 10.2 20:10:33 10° WSW 20:16:12 23° SSW 20:17:38 22° S visible
17 Dec 9.4 17:35:12 10° WSW 17:40:13 33° S 17:47:07 10° ESE visible
17 Dec 10.1 19:38:22 10° WSW 19:43:44 23° SSW 19:47:27 18° SSE visible
